Weather History for Liberal, KS

Change the Weather History Date:

Friday, May 17, 2013

  Actual Average Record
Temperature  
Mean Temperature 73 °F -  
Max Temperature 91 °F 78 °F 93 °F (1956)
Min Temperature 55 °F 52 °F 40 °F (1945)
Cooling Degree Days 8    
Growing Degree Days 23 (Base 50)    
Moisture  
Dew Point 57 °F    
Average Humidity 62    
Maximum Humidity 88    
Minimum Humidity 28    
Precipitation  
Precipitation 0.00 in - - ()
Sea Level Pressure  
Sea Level Pressure 29.86 in    
Wind  
Wind Speed 14 mph (SE)    
Max Wind Speed 26 mph    
Max Gust Speed 33 mph    
Visibility 10 miles    
Events      
Averages and records for this station are not official NWS values.
T = Trace of Precipitation, MM = Missing Value Source: NWS Daily Summary

Daily Weather History Graph

Daily Weather History Graph

Search for Another Location

Airport:

Trip Planner

Search our weather history database for the weather conditions in past years. The results will help you decide how hot, cold, wet, or windy it might be!

Date:

Astronomy

May. 17, 2013 Rise Set
Actual Time 6:33 AM CDT 8:47 PM CDT
Civil Twilight 6:04 AM CDT 9:16 PM CDT
Nautical Twilight 5:28 AM CDT 9:52 PM CDT
Astronomical Twilight 4:49 AM CDT 10:31 PM CDT
Moon 1:04 PM CDT (5/17) 1:44 AM CDT (5/17)
Length of Visible Light 15h 11m
Length of Day
14h 13m
Waxing Crescent, 45% of the Moon is Illuminated
May 17
Waxing Crescent
May 17
First Quarter
May 24
Full
May 31
Last Quarter
Jun 8
New

Hourly Weather History & Observations

Time (CDT) Temp. Heat Index Dew Point Humidity Pressure Visibility Wind Dir Wind Speed Gust Speed Precip Events Conditions
12:15 AM 68.0 °F - 53.6 °F 60% 29.89 in 10.0 mi East 16.1 mph - N/A   Clear
12:35 AM 68.0 °F - 53.6 °F 60% 29.90 in 10.0 mi East 18.4 mph - N/A   Clear
12:55 AM 66.2 °F - 53.6 °F 64% 29.90 in 10.0 mi East 18.4 mph - N/A   Partly Cloudy
1:15 AM 64.4 °F - 53.6 °F 68% 29.90 in 10.0 mi East 20.7 mph - N/A   Partly Cloudy
1:35 AM 64.4 °F - 53.6 °F 68% 29.89 in 10.0 mi East 21.9 mph 26.5 mph N/A   Partly Cloudy
1:55 AM 64.4 °F - 53.6 °F 68% 29.89 in 10.0 mi ESE 19.6 mph 26.5 mph N/A   Clear
2:15 AM 62.6 °F - 53.6 °F 72% 29.89 in 10.0 mi SE 17.3 mph 20.7 mph N/A   Clear
2:35 AM 62.6 °F - 53.6 °F 72% 29.88 in 10.0 mi SE 16.1 mph - N/A   Clear
2:55 AM 62.6 °F - 53.6 °F 72% 29.88 in 10.0 mi SE 13.8 mph - N/A   Clear
3:15 AM 60.8 °F - 53.6 °F 77% 29.88 in 10.0 mi SE 15.0 mph - N/A   Clear
3:35 AM 60.8 °F - 53.6 °F 77% 29.88 in 10.0 mi SE 13.8 mph - N/A   Clear
3:55 AM 60.8 °F - 53.6 °F 77% 29.87 in 10.0 mi SSE 10.4 mph - N/A   Clear
4:15 AM 60.8 °F - 53.6 °F 77% 29.88 in 10.0 mi SSE 11.5 mph - N/A   Clear
4:35 AM 59.0 °F - 51.8 °F 77% 29.87 in 10.0 mi SSE 8.1 mph - N/A   Clear
4:55 AM 57.2 °F - 51.8 °F 82% 29.87 in 10.0 mi South 9.2 mph - N/A   Clear
5:15 AM 57.2 °F - 51.8 °F 82% 29.87 in 10.0 mi South 8.1 mph - N/A   Clear
5:35 AM 55.4 °F - 51.8 °F 88% 29.88 in 10.0 mi SSW 6.9 mph - N/A   Clear
5:55 AM 55.4 °F - 50.0 °F 82% 29.88 in 10.0 mi South 4.6 mph - N/A   Clear
6:15 AM 55.4 °F - 50.0 °F 82% 29.87 in 10.0 mi South 3.5 mph - N/A   Clear
6:35 AM 55.4 °F - 50.0 °F 82% 29.87 in 9.0 mi SSE 3.5 mph - N/A   Clear
7:15 AM 57.2 °F - 51.8 °F 82% 29.87 in 10.0 mi East 3.5 mph - N/A   Clear
7:35 AM 59.0 °F - 53.6 °F 82% 29.88 in 9.0 mi East 4.6 mph - N/A   Clear
7:55 AM 60.8 °F - 53.6 °F 77% 29.89 in 10.0 mi SE 3.5 mph - N/A   Partly Cloudy
8:15 AM 60.8 °F - 53.6 °F 77% 29.90 in 10.0 mi ENE 3.5 mph - N/A   Scattered Clouds
8:35 AM 60.8 °F - 53.6 °F 77% 29.91 in 10.0 mi Calm Calm - N/A   Mostly Cloudy
8:55 AM 62.6 °F - 53.6 °F 72% 29.92 in 10.0 mi SE 3.5 mph - N/A   Overcast
9:15 AM 64.4 °F - 55.4 °F 73% 29.92 in 10.0 mi South 4.6 mph - N/A   Overcast
9:35 AM 64.4 °F - 55.4 °F 73% 29.92 in 10.0 mi SSE 5.8 mph - N/A   Overcast
9:55 AM 66.2 °F - 57.2 °F 73% 29.92 in 10.0 mi SE 8.1 mph - N/A   Overcast
10:15 AM 68.0 °F - 57.2 °F 68% 29.92 in 10.0 mi ESE 6.9 mph - N/A   Overcast
10:35 AM 69.8 °F - 59.0 °F 68% 29.91 in 10.0 mi South 6.9 mph - N/A   Mostly Cloudy
10:55 AM 71.6 °F - 60.8 °F 69% 29.91 in 10.0 mi SSE 6.9 mph - N/A   Mostly Cloudy
11:15 AM 71.6 °F - 60.8 °F 69% 29.91 in 10.0 mi SSE 6.9 mph - N/A   Mostly Cloudy
11:35 AM 73.4 °F - 60.8 °F 65% 29.91 in 10.0 mi South 9.2 mph - N/A   Overcast
11:55 AM 73.4 °F - 60.8 °F 65% 29.91 in 10.0 mi South 5.8 mph 16.1 mph N/A   Overcast
12:15 PM 75.2 °F - 60.8 °F 61% 29.90 in 10.0 mi SSE 11.5 mph 16.1 mph N/A   Overcast
12:35 PM 78.8 °F - 60.8 °F 54% 29.89 in 10.0 mi SSE 12.7 mph 16.1 mph N/A   Partly Cloudy
12:55 PM 80.6 °F 81.5 °F 60.8 °F 51% 29.89 in 10.0 mi South 8.1 mph 17.3 mph N/A   Clear
1:15 PM 80.6 °F 81.5 °F 60.8 °F 51% 29.88 in 10.0 mi South 11.5 mph - N/A   Clear
1:35 PM 82.4 °F 82.5 °F 59.0 °F 45% 29.88 in 10.0 mi SSE 12.7 mph 23.0 mph N/A   Clear
2:15 PM 84.2 °F 83.8 °F 59.0 °F 42% 29.86 in 10.0 mi South 15.0 mph 19.6 mph N/A   Clear
2:35 PM 86.0 °F 84.9 °F 57.2 °F 37% 29.86 in 10.0 mi South 13.8 mph - N/A   Clear
2:55 PM 87.8 °F 86.5 °F 57.2 °F 35% 29.85 in 10.0 mi SSE 10.4 mph 20.7 mph N/A   Clear
3:15 PM 87.8 °F 86.5 °F 57.2 °F 35% 29.84 in 10.0 mi SSE 11.5 mph 20.7 mph N/A   Clear
3:35 PM 89.6 °F 88.1 °F 57.2 °F 33% 29.83 in 10.0 mi SSE 15.0 mph 18.4 mph N/A   Clear
3:55 PM 89.6 °F 87.7 °F 55.4 °F 31% 29.82 in 10.0 mi SSE 17.3 mph 20.7 mph N/A   Clear
4:15 PM 89.6 °F 87.7 °F 55.4 °F 31% 29.81 in 10.0 mi SE 13.8 mph 21.9 mph N/A   Clear
4:35 PM 91.4 °F 89.4 °F 55.4 °F 29% 29.81 in 10.0 mi SSE 13.8 mph 26.5 mph N/A   Clear
4:55 PM 91.4 °F 89.4 °F 55.4 °F 29% 29.80 in 10.0 mi SE 15.0 mph 26.5 mph N/A   Clear
5:15 PM 91.4 °F 89.1 °F 53.6 °F 28% 29.79 in 10.0 mi SSE 18.4 mph 25.3 mph N/A   Clear
5:35 PM 91.4 °F 89.4 °F 55.4 °F 29% 29.79 in 10.0 mi SE 16.1 mph 26.5 mph N/A   Clear
5:55 PM 91.4 °F 89.4 °F 55.4 °F 29% 29.78 in 10.0 mi SE 16.1 mph 24.2 mph N/A   Clear
6:15 PM 89.6 °F 87.3 °F 53.6 °F 29% 29.78 in 10.0 mi SE 17.3 mph 28.8 mph N/A   Clear
6:35 PM 87.8 °F 86.5 °F 57.2 °F 35% 29.78 in 10.0 mi ESE 24.2 mph 28.8 mph N/A   Clear
6:55 PM 84.2 °F 83.8 °F 59.0 °F 42% 29.78 in 10.0 mi ESE 26.5 mph 33.4 mph N/A   Clear
7:15 PM 82.4 °F 82.9 °F 60.8 °F 48% 29.78 in 10.0 mi SE 26.5 mph 33.4 mph N/A   Clear
7:35 PM 80.6 °F 81.5 °F 60.8 °F 51% 29.79 in 10.0 mi ESE 26.5 mph 33.4 mph N/A   Clear
7:55 PM 78.8 °F - 60.8 °F 54% 29.79 in 10.0 mi SE 21.9 mph 33.4 mph N/A   Clear
8:15 PM 78.8 °F - 60.8 °F 54% 29.80 in 10.0 mi SE 23.0 mph 32.2 mph N/A   Clear
8:35 PM 75.2 °F - 60.8 °F 61% 29.80 in 10.0 mi ESE 20.7 mph 27.6 mph N/A   Clear
8:55 PM 75.2 °F - 60.8 °F 61% 29.81 in 10.0 mi ESE 20.7 mph 26.5 mph N/A   Clear
9:15 PM 73.4 °F - 60.8 °F 65% 29.82 in 10.0 mi SE 17.3 mph 24.2 mph N/A   Clear
9:35 PM 71.6 °F - 60.8 °F 69% 29.83 in 10.0 mi ESE 19.6 mph 24.2 mph N/A   Clear
9:55 PM 71.6 °F - 60.8 °F 69% 29.83 in 10.0 mi ESE 19.6 mph 26.5 mph N/A   Clear
10:15 PM 69.8 °F - 60.8 °F 73% 29.83 in 10.0 mi ESE 18.4 mph 26.5 mph N/A   Clear
10:35 PM 69.8 °F - 60.8 °F 73% 29.84 in 10.0 mi ESE 20.7 mph 27.6 mph N/A   Clear
10:55 PM 68.0 °F - 60.8 °F 78% 29.84 in 9.0 mi ESE 17.3 mph 21.9 mph N/A   Scattered Clouds
11:15 PM 68.0 °F - 60.8 °F 78% 29.85 in 8.0 mi SE 21.9 mph - N/A   Mostly Cloudy
11:35 PM 68.0 °F - 60.8 °F 78% 29.85 in 8.0 mi SE 17.3 mph 23.0 mph N/A   Overcast
11:55 PM 69.8 °F - 62.6 °F 78% 29.85 in 8.0 mi SSE 19.6 mph 27.6 mph N/A   Overcast